sat.trackr.live / text

‹ back to catalog

STARLINK-30558

NORAD 58060 · 2023-158K

PAYLOAD ACTIVE UNKNOWN

§ Identity

Operator
Country
US
Launch date
2023-10-13
Launch site
AFETR
Launch vehicle
Mass (kg)
RCS (m²)

Purposes: comms

External: N2YO · Heavens-Above · Gunter

§ Orbital elements

Epoch: 2026-09-20T14:02:04.636032Z

Period
94.27 min
Inclination
43.0027°
Eccentricity
0.0001625
Mean motion
15.27577139 rev/d
Perigee alt
481.9 km
Apogee alt
484.2 km
Semi-major
6,861.2 km
B*
4.6104e-6
RAAN
6.6301°
Arg perigee
270.8618°
Mean anomaly
89.2048°
Rev number
16,337

§ Raw data

STARLINK-305581 58060U 23158K   26263.58477588 -.00000135  00000+0  46104-5 0  99982 58060  43.0027   6.6301 0001625 270.8618  89.2048 15.27577139163377

JSON: /api/v1/satellites/58060 · /tle

For live sub-satellite position, see the globe view (requires WebGL).

§ Visibility from observer

Set your observer location to see the next 7 days of passes ≥ 10°. The values pass through the URL so the page stays shareable.

No JS? Fill the form by hand. The geolocation button needs JavaScript.